sat.trackr.live / text

‹ back to catalog

STARLINK-4496

NORAD 53412 · 2022-097AA

PAYLOAD ACTIVE UNKNOWN

§ Identity

Operator
Country
US
Launch date
2022-08-10
Launch site
AFETR
Launch vehicle
Mass (kg)
RCS (m²)

Purposes: comms

External: N2YO · Heavens-Above · Gunter

§ Orbital elements

Epoch: 2026-05-25T03:21:03.974112Z

Period
95.44 min
Inclination
53.2146°
Eccentricity
0.0001204
Mean motion
15.08837419 rev/d
Perigee alt
538.9 km
Apogee alt
540.6 km
Semi-major
6,917.9 km
B*
4.1141e-5
RAAN
130.9250°
Arg perigee
70.7628°
Mean anomaly
289.3494°
Rev number
21,019

§ Raw data

STARLINK-44961 53412U 22097AA  26145.13962933  .00000367  00000+0  41141-4 0  99992 53412  53.2146 130.9250 0001204  70.7628 289.3494 15.08837419210193

JSON: /api/v1/satellites/53412 · /tle

For live sub-satellite position, see the globe view (requires WebGL).

§ Visibility from observer

Set your observer location to see the next 7 days of passes ≥ 10°. The values pass through the URL so the page stays shareable.

No JS? Fill the form by hand. The geolocation button needs JavaScript.